Tracking 31027 objects as of 19-Jul-2025
HD Live streaming from Space Station
objects crossing your sky now

STARLINK-4740

Track STARLINK-4740 now!
10-day predictions
STARLINK-4740 is classified as:


NORAD ID: 53871
Int'l Code: 2022-114BF
Perigee: 546.2 km
Apogee: 547.6 km
Inclination: 53.2 °
Period: 95.4 minutes
Semi major axis: 6917 km
RCS: Unknown
Launch date: September 19, 2022
Source: United States (US)
Launch site: AIR FORCE EASTERN TEST RANGE (AFETR)
Your satellite tracking list
KORSAT 7
Track 1 satellite(s)




NASA's NSSDC Master Catalog

Two Line Element Set (TLE):
1 53871U 22114BF  25199.83520599 -.00000089  00000-0  12489-4 0  9997
2 53871  53.2163 233.5563 0001032  80.6734 279.4374 15.08840956157552
Source of the keplerian elements: AFSPC